Content
SEND FEEDBACK

Daily
Averages
Monthly
Summary
United States of America

BERKELEY, MISSOURI


Home > North America > United States > Missouri
Elevation: 172 meters     Latitude: 38 45N     Longitude: 090 22W

WEATHER
 
SELECT A DAY
Number of Records: 205,864;   Date Range: 1/1/95 - 10/1/14
 
SHARE

PRINT THIS DATA

[ ← Previous Day ]
WEATHER ALMANAC - 17 MAY, 2013
[ Next Day → ]
[ °F ]   °C
Weather ElementAverageHighLow
Temperature21.8 °C24.4 °C (3:51 pm)18.9 °C (2:51 am)
Dewpoint16.7 °C18.9 °C (1:51 pm)13.9 °C (4:51 am)
Humidity72.5 %87 % (1:51 pm)64 % (11:51 am)
Barometer1013.2 hPa1014.2 hPa (12:51 pm)1012.5 hPa (2:51 am)
Wind Speed10.9 km/h16.7 km/h (10:51 am)
Weather ElementAverage
Visibility15.3 km
Wind DirectionSE (136.1 °)

Weather ElementTotal
Precipitation6.86 mm
Cooling Degree Days3.3 (Base 18.3)
Growing Degree Days11.7 (Base 10)
Averaged from 23 records on 17 May, 2013
WEATHER CONDITIONS BREAKOUT
WIND DIRECTION BREAKOUT
WEATHER BY HOUR - 17 MAY, 2013
[ °F ]   °C
Local TimeTemperatureDewpointHumidityBarometerVisibilityWind DirectionWind SpeedGust SpeedPrecipitationEventsConditions
1:51 AM19.4 °C14.4 °C73 %1013.2 hPa16.1 kmESE (120°)9.3 km/hMostly Cloudy
2:51 AM18.9 °C14.4 °C75 %1012.5 hPa16.1 kmESE (120°)11.1 km/hMostly Cloudy
3:51 AM20 °C14.4 °C70 %1012.5 hPa16.1 kmSSE (150°)9.3 km/hOvercast
4:51 AM20.6 °C13.9 °C65 %1012.5 hPa16.1 kmSE (130°)9.3 km/hMostly Cloudy
5:51 AM20.6 °C13.9 °C65 %1012.9 hPa16.1 kmSSE (160°)11.1 km/hOvercast
6:51 AM19.4 °C15 °C76 %1013.5 hPa16.1 kmEast (100°)7.4 km/hMostly Cloudy
7:51 AM20 °C15 °C73 %1013.9 hPa14.5 kmESE (110°)9.3 km/hOvercast
8:51 AM22.2 °C15.6 °C66 %1013.9 hPa16.1 kmSE (140°)9.3 km/hMostly Cloudy
9:51 AM22.8 °C16.7 °C68 %1013.9 hPa16.1 kmSSE (150°)14.8 km/hMostly Cloudy
10:51 AM23.9 °C17.2 °C66 %1013.9 hPa16.1 kmESE (120°)16.7 km/hMostly Cloudy
11:51 AM23.9 °C16.7 °C64 %1013.9 hPa16.1 kmESE (120°)14.8 km/hOvercast
12:51 PM21.7 °C18.3 °C81 %1014.2 hPa12.9 kmSouth (190°)7.4 km/h0.25 mmRainLight Rain
1:51 PM21.1 °C18.9 °C87 %1013.9 hPa14.5 kmNorth (350°)5.6 km/h6.35 mmRainLight Rain
2:51 PM23.3 °C18.9 °C76 %1013.5 hPa14.5 kmNNE (30°)5.6 km/h0.25 mmMostly Cloudy
3:51 PM24.4 °C17.8 °C67 %1012.9 hPa16.1 kmEast (100°)14.8 km/hMostly Cloudy
4:51 PM23.9 °C18.3 °C71 %1012.5 hPa12.9 kmESE (110°)14.8 km/h0 mmRainLight Rain
5:51 PM23.9 °C18.3 °C71 %1012.5 hPa14.5 kmESE (120°)16.7 km/h0 mmMostly Cloudy
6:51 PM23.3 °C17.8 °C71 %1012.5 hPa14.5 kmESE (120°)13 km/hMostly Cloudy
7:51 PM22.8 °C17.8 °C73 %1012.9 hPa12.9 kmESE (120°)11.1 km/hMostly Cloudy
8:51 PM22.2 °C18.3 °C78 %1013.2 hPa14.5 kmESE (120°)9.3 km/hMostly Cloudy
9:51 PM22.2 °C17.2 °C73 %1013.9 hPa16.1 kmSE (140°)11.1 km/hMostly Cloudy
10:51 PM21.1 °C17.2 °C78 %1014.2 hPa16.1 kmSSE (150°)9.3 km/hScattered Clouds
11:51 PM20.6 °C17.2 °C81 %1014.2 hPa16.1 kmSSE (160°)11.1 km/hPartly Cloudy
Hourly data recorded from KSTL, located 0 kilometers away from Berkeley, Missouri







STORIES FROM OUR PARTNERS